www.pogodaiklimat.ru

Погода и климат >> Архив погоды >> Австралия >> Западная Австралия >> Кунунарра


ПОГОДА в Кунунарре

  • Прогноз погоды в Кунунарре
  • Монитор погоды в Кунунарре

АРХИВ ПОГОДЫ в Кунунарре

Время (UTC), дата Ветер
(напр.,м/с)
 
Видим.   Явления Облачность Т
(С)
Тd
(С)
f
(%)
Тe
(С)
Тes
(С)
Комфортность P
(гПа)
Po
(гПа)
Тmin
(С)
Tmax
(С)
R
(мм)
R24
(мм)
S
(см)
13 16.05 Ю 1 н/о н/о +24.5 +18.2 68 +29 +29 душно 1012.6 1007.5 +36.6
15 16.05 штиль 0 н/о н/о +22.1 +17.2 74 +27 +27 душно 1011.8 1006.7
16 16.05 штиль 0 н/о н/о +22.2 +17.8 76 +27 +27 душно 1011.4 1006.3
18 16.05 СВ 2 н/о н/о +21.5 +17.5 78 +26 +26 душно 1010.9 1005.8
19 16.05 Ю 4 8000 м 5/0
[]
+25.3 +16.2 57 +29 +29 душно 1011.1 1006.0
21 16.05 штиль 0 н/о н/о +20.6 +16.4 77 +24 +24 комфорт 1010.9 1005.8
22 16.05 штиль 0 н/о н/о +20.5 +16.7 79 +23 +23 комфорт 1011.7 1006.6
00 17.05 В 2 н/о н/о +30.0 +15.3 41 +33 +33 душно 1013.2 1008.1
01 17.05 СВ 5 8000 м 1/0 2000 м
[]
+32.6 +16.0 37 +35 +40 душно 1013.4 1008.3 +19.7
03 17.05 С 5 н/о н/о +33.8 +17.5 38 +37 +37 очень
душно
1011.9 1006.8
04 17.05 СВ 4 н/о 1/0 2000 м
[]
+35.4 +16.7 33 +38 +47 очень
душно
1010.6 1005.5
06 17.05 В 2 н/о н/о +35.6 +15.9 31 +38 +38 очень
душно
1009.2 1004.1
07 17.05 В 2 н/о 10/0 2000 м
[]
+36.1 +15.8 30 +38 +40 очень
душно
1008.8 1003.7
09 17.05 СВ 3 н/о н/о +32.9 +17.5 40 +37 +37 очень
душно
1009.5 1004.4
10 17.05 С 2 8000 м н/о +29.2 +18.0 51 +34 +34 очень
душно
1010.2 1005.1
12 17.05 С 2 н/о н/о +26.1 +19.0 65 +31 +31 очень
душно
1012.1 1007.0
13 17.05 С 2 н/о н/о +26.0 +19.6 68 +32 +32 очень
душно
1012.2 1007.1 +37.3
15 17.05 С 2 н/о н/о +24.1 +19.6 76 +29 +29 душно 1012.3 1007.2
16 17.05 СЗ 2 н/о н/о +24.1 +19.2 74 +29 +29 душно 1012.4 1007.3
18 17.05 Ю 2 н/о н/о +23.9 +20.2 80 +30 +30 очень
душно
1012.3 1007.2
19 17.05 СВ 1 н/о н/о +22.3 +19.1 82 +28 +28 душно 1012.3 1007.2
21 17.05 Ю 1 н/о н/о +21.7 +19.8 89 +27 +27 душно 1012.5 1007.4
22 17.05 штиль 0 н/о н/о +21.8 +19.7 88 +27 +27 душно 1013.2 1008.1
00 18.05 Ю 2 н/о н/о +29.1 +20.5 60 +36 +36 очень
душно
1014.5 1009.4
01 18.05 СВ 3 н/о н/о +31.8 +20.4 51 +39 +39 очень
душно
1014.6 1009.5 +21.4
03 18.05 СВ 3 н/о н/о +33.8 +18.3 40 +38 +38 очень
душно
1012.9 1007.8
04 18.05 СВ 3 н/о 1/1 1500 м
[]
+34.9 +18.0 37 +39 +49 очень
душно
1011.8 1006.7
06 18.05 В 3 н/о н/о +35.9 +16.6 32 +38 +38 очень
душно
1010.2 1005.1
07 18.05 С 3 н/о н/о +36.2 +16.4 31 +39 +39 очень
душно
1009.9 1004.8
09 18.05 СВ 3 н/о н/о +32.0 +17.5 42 +36 +36 очень
душно
1010.7 1005.6
10 18.05 штиль 0 9000 м н/о +29.1 +18.5 53 +34 +34 очень
душно
1011.5 1006.4
12 18.05 С 2 н/о н/о +25.9 +19.1 66 +31 +31 очень
душно
1013.3 1008.2
13 18.05 С 3 н/о н/о +26.2 +20.1 69 +32 +32 очень
душно
1013.7 1008.6 +37.1
15 18.05 С 1 н/о н/о +24.1 +20.0 78 +30 +30 очень
душно
1013.8 1008.7
16 18.05 штиль 0 н/о н/о +23.7 +19.8 79 +29 +29 душно 1013.5 1008.4
18 18.05 штиль 0 н/о н/о +22.3 +19.1 82 +28 +28 душно 1013.2 1008.1
19 18.05 штиль 0 н/о н/о +21.8 +19.2 85 +27 +27 душно 1013.0 1007.9
21 18.05 штиль 0 н/о н/о +21.7 +19.4 87 +27 +27 душно 1013.4 1008.3
22 18.05 штиль 0 н/о н/о +22.4 +20.1 87 +29 +29 очень
душно
1013.7 1008.6
00 19.05 Ю 2 н/о н/о +28.4 +20.7 63 +35 +35 очень
душно
1015.4 1010.3
01 19.05 В 5 н/о 5/5 1500 м
[]
+31.5 +19.2 48 +37 +39 очень
душно
1015.5 1010.4 +21.6
03 19.05 ЮВ 4 н/о н/о +33.2 +19.7 45 +39 +39 очень
душно
1014.5 1009.4
04 19.05 ЮВ 4 7000 м 10/10 1500 м
[]
+33.8 +19.5 43 +39 +39 очень
душно
1013.1 1008.0
06 19.05 СВ 5 н/о н/о +30.4 +20.6 56 +37 +37 очень
душно
1012.2 1007.1
07 19.05 Ю 6 н/о в посл. час дождь {туман} 1/0
[]
+30.5 +21.6 59 +39 +40 очень
душно
1011.9 1006.8
09 19.05 Ю 4 н/о н/о +28.0 +20.6 64 +35 +35 очень
душно
1013.0 1007.9
10 19.05 ЮВ 3 9000 м 9/0
[]
+27.4 +20.5 66 +34 +34 очень
душно
1013.7 1008.6
12 19.05 ЮВ 5 н/о н/о +26.9 +21.4 72 +34 +34 очень
душно
1015.0 1009.9
13 19.05 Ю 3 8000 м 1/0
[]
+26.3 +21.3 74 +33 +33 очень
душно
1014.9 1009.8 +35.0
15 19.05 ЮВ 3 н/о н/о +26.2 +21.4 75 +33 +33 очень
душно
1014.6 1009.5
16 19.05 ЮВ 3 7000 м н/о +25.9 +20.9 74 +32 +32 очень
душно
1014.2 1009.1
18 19.05 Ю 2 н/о н/о +25.4 +20.0 72 +31 +31 очень
душно
1013.8 1008.7
19 19.05 Ю 2 н/о н/о +24.8 +19.6 73 +30 +30 душно 1013.7 1008.6
21 19.05 ЮВ 3 н/о н/о +24.5 +19.3 73 +30 +30 очень
душно
1014.3 1009.2
22 19.05 СЗ 1 н/о н/о +22.2 +19.4 84 +28 +28 душно 1015.3 1010.2
00 20.05 ЮВ 4 н/о н/о +28.8 +18.6 54 +34 +34 очень
душно
1016.2 1011.1
01 20.05 ЮВ 5 н/о н/о +30.1 +17.9 48 +35 +35 очень
душно
1016.4 1011.3 +21.8
03 20.05 СВ 4 н/о н/о +33.0 +18.0 41 +37 +37 очень
душно
1014.9 1009.8
04 20.05 ЮВ 3 н/о н/о +33.3 +17.5 39 +37 +37 очень
душно
1013.6 1008.5
06 20.05 ЮВ 4 н/о н/о +34.6 +17.3 36 +38 +38 очень
душно
1012.0 1006.9
07 20.05 ЮВ 3 н/о 1/0 2000 м
[]
+34.8 +17.1 35 +38 +42 очень
душно
1011.8 1006.7
09 20.05 В 3 н/о н/о +32.0 +17.5 42 +36 +36 очень
душно
1012.6 1007.5
10 20.05 штиль 0 4000 м н/о +28.1 +18.8 57 +33 +33 очень
душно
1013.0 1007.9
12 20.05 В 2 н/о н/о +27.2 +19.8 64 +33 +33 очень
душно
1014.4 1009.3
13 20.05 штиль 0 н/о н/о +26.1 +20.0 69 +32 +32 очень
душно
1014.5 1009.4 +36.3
15 20.05 СВ 1 н/о н/о +25.5 +19.6 70 +31 +31 очень
душно
1014.1 1009.0
16 20.05 штиль 0 н/о н/о +24.7 +19.5 73 +30 +30 очень
душно
1013.6 1008.5
18 20.05 ЮВ 2 н/о н/о +23.8 +20.1 80 +29 +29 душно 1013.3 1008.2
19 20.05 ЮВ 4 н/о 9/0
[]
+29.3 +17.8 50 +34 +34 очень
душно
1013.3 1008.2
21 20.05 ЮВ 3 н/о н/о +26.5 +17.6 58 +31 +31 душно 1013.9 1008.8
22 20.05 ЮВ 4 н/о н/о +27.4 +17.0 53 +31 +31 душно 1014.6 1009.5
00 21.05 ЮВ 5 н/о н/о +31.0 +15.8 40 +34 +34 душно 1015.8 1010.7
01 21.05 ЮВ 5 н/о н/о +31.7 +15.2 37 +34 +34 душно 1016.0 1010.9 +23.4
03 21.05 ЮВ 5 н/о н/о +34.5 +14.4 30 +36 +36 душно 1014.5 1009.4
04 21.05 В 5 н/о н/о +35.2 +12.2 25 +35 +35 очень
жарко
1013.4 1008.3
06 21.05 ЮВ 4 н/о н/о +35.7 +13.2 26 +36 +36 очень
жарко
1011.6 1006.5
07 21.05 В 5 н/о н/о +35.7 +11.4 23 +35 +35 очень
жарко
1011.7 1006.6
09 21.05 В 4 н/о н/о +32.7 +11.3 27 +33 +33 жарко 1012.9 1007.8
10 21.05 В 2 н/о н/о +28.1 +13.6 41 +30 +30 жарко 1013.6 1008.5
12 21.05 ЮВ 2 н/о н/о +24.7 +16.4 60 +28 +28 душно 1014.6 1009.5
13 21.05 ЮВ 1 9000 м н/о +23.9 +15.7 60 +27 +27 жарко 1014.7 1009.6
15 21.05 штиль 0 н/о н/о +22.4 +17.5 74 +27 +27 душно 1015.1 1010.0
16 21.05 СВ 1 н/о н/о +22.0 +16.3 70 +26 +26 душно 1015.1 1010.0
18 21.05 ЮВ 4 н/о н/о +26.7 +13.4 44 +29 +29 жарко 1014.9 1009.8
19 21.05 ЮВ 6 н/о н/о +28.7 +9.9 31 +29 +29 жарко 1014.7 1009.6
21 21.05 В 6 н/о н/о +27.9 +7.7 28 +27 +27 жарко 1015.9 1010.8
22 21.05 ЮВ 6 н/о н/о +27.1 +7.5 29 +27 +27 жарко 1016.5 1011.4
00 22.05 В 8 н/о н/о +29.4 +9.0 28 +29 +29 жарко 1017.7 1012.6
01 22.05 В 8 н/о н/о +31.6 +9.8 26 +31 +31 жарко 1017.8 1012.7
03 22.05 ЮВ 7 н/о н/о +34.2 +10.1 23 +33 +33 жарко 1016.2 1011.1
04 22.05 ЮВ 6 н/о н/о +34.3 +10.2 23 +33 +33 жарко 1015.0 1009.9
06 22.05 ЮВ 6 н/о н/о +35.2 +7.3 18 +33 +33 жарко 1013.0 1007.9
07 22.05 ЮВ 6 н/о н/о +35.2 +5.6 16 +33 +33 жарко 1012.9 1007.8
09 22.05 ЮВ 3 н/о н/о +31.7 +8.7 24 +31 +31 жарко 1013.3 1008.2
10 22.05 ЮВ 3 9000 м н/о +30.8 +7.9 24 +30 +30 жарко 1014.0 1008.9
12 22.05 ЮВ 5 н/о н/о +29.8 +7.1 24 +29 +29 жарко 1015.2 1010.1
13 22.05 ЮВ 4 н/о н/о +29.6 +6.3 23 +28 +28 жарко 1015.6 1010.5 +35.9
15 22.05 ЮВ 5 н/о н/о +28.9 +6.9 25 +28 +28 жарко 1016.0 1010.9
16 22.05 ЮВ 4 9000 м н/о +26.9 +7.9 30 +27 +27 жарко 1016.1 1011.0
18 22.05 ЮВ 4 н/о н/о +25.6 +8.1 33 +26 +26 жарко 1015.3 1010.2
19 22.05 ЮВ 4 6000 м н/о +24.8 +8.3 35 +25 +25 комфорт 1015.2 1010.1
21 22.05 ЮВ 4 н/о н/о +25.2 +8.2 34 +26 +26 жарко 1016.1 1011.0
22 22.05 З 1 н/о н/о +22.5 +9.3 43 +24 +24 комфорт 1017.0 1011.9
00 23.05 ЮВ 6 н/о н/о +28.6 +10.3 32 +29 +29 жарко 1018.0 1012.9
01 23.05 В 6 н/о н/о +29.9 +9.9 29 +30 +30 жарко 1017.8 1012.7 +22.3
03 23.05 ЮВ 5 н/о н/о +31.7 +9.8 26 +31 +31 жарко 1015.8 1010.7
04 23.05 ЮВ 5 н/о н/о +32.5 +8.7 23 +31 +31 жарко 1014.8 1009.7
06 23.05 В 6 н/о н/о +34.1 +8.7 21 +33 +33 жарко 1013.3 1008.2
07 23.05 ЮВ 4 н/о н/о +33.6 +8.3 21 +32 +32 жарко 1013.1 1008.0
09 23.05 ЮВ 2 н/о н/о +29.9 +10.5 30 +30 +30 жарко 1013.7 1008.6
10 23.05 В 2 н/о н/о +24.9 +12.8 47 +27 +27 жарко 1014.3 1009.2
12 23.05 штиль 0 н/о н/о +24.5 +13.1 49 +27 +27 жарко 1015.4 1010.3

 

Местоположение метеостанции Кунунарра (Западная Австралия, Австралия): широта -15.78 долгота 128.71 высота над уровнем моря 44 м.

В архиве по умолчанию представлена погода в Кунунарре за последнюю неделю. Архивные данные за месяц целиком и за предыдущие месяцы, начиная с января 2011 года, Вы можете получить, выбрав интересующий диапазон дат из раскрывающегося списка и нажав кнопку "Ввод!".


*Определитесь, кто Вы:
робот инопланетянин человек

Внимание! Время в таблицах - всемирное. Для получения местного времени необходимо прибавить поправку, которая равна 8 ч.

Смотрите также архив погоды в соседних городах и на ближайших метеорологических станциях:

Погода в Уиндеме (Западная Австралия, Австралия) (68 км)
Погода в Аэропорту Аргайл (Западная Австралия, Австралия) (99 км)
Погода в Порт Китс (Северная территория, Австралия) (192 км)
Погода в Манбуллу Ксиро (Северная территория, Австралия) (242 км)
Погода в Виктория-Ривер (Северная территория, Австралия) (256 км)
Погода в Калумбуру (Западная Австралия, Австралия) (276 км)
Погода в Холс Крик (Западная Австралия, Австралия) (294 км)
Погода в Трускотте (Западная Австралия, Австралия) (314 км)
Погода на Маяке Кейп-Дон (Северная территория, Австралия) (343 км)
Погода на Базе ВВС Delamere Weapons Range (Северная территория, Австралия) (344 км)

Пояснения к столбцам:

Ветер - указаны скорость ветра в м/с - средняя за 10 мин, порывы в срок и между сроками (в фигурных скобках) и направление, откуда дует ветер: С - северный, СВ - северо-восточный, В - восточный, ЮВ - юго-восточный, Ю - южный, ЮЗ - юго-западный, З - западный, СЗ - северо-западный.
Видимость - горизонтальная дальность видимости в метрах или километрах. При видимости от 1 до 10 км при отсутствии осадков обычно наблюдается дымка, при ухудшении видимости до 1 км и менее - туман. В сухую погоду видимость может ухудшаться дымом, пылью или мглою.
Явления - указаны атмосферные явления, наблюдавшиеся в срок или в последний час перед сроком; фигурными скобками обозначены явления, наблюдавшиеся между сроками (за 1-3 часа до срока); квадратными скобками обозначены град или гололедные отложения с указанием их диаметра в мм.
Облачность - указаны через наклонную черту общая и нижняя облачность в баллах и высота нижней границы облаков в метрах; квадратными скобками обозначены формы облаков: Ci - перистые, Cs - перисто-слоистые, Cc - перисто-кучевые, Ac - высококучевые, As - высокослоистые, Sc - слоисто-кучевые, Ns - слоисто-дождевые, Cu - кучевые, Cb - кучево-дождевые. Подробнее классификацию облаков см. в Атласе облаков (PDF).
T - Температура воздуха - температура, измеренная на высоте 2 м над землей.
Td - Температура точки росы - температура, при понижении до которой содержащийся в воздухе водяной пар достигнет насыщения.
f - Относительная влажность воздуха - влажноcть воздуха, измеренная на высоте 2 м над землей.
Te - Эффективная температура - температура, которую ощущает одетый по сезону человек в тени. Характеристика душности погоды. При расчете учитывается влияние влажности воздуха и скорости ветра на теплоощущения человека.
Tes - Эффективная температура на солнце - температура, которую ощущает человек, с поправкой на солнечный нагрев. Характеристика знойности погоды. Зависит от высоты солнца над горизонтом, облачности и скорости ветра. Ночью, в пасмурную погоду, а также при ветре 12 м/с и более поправка равна нулю.
P - Атмосферное давление - приведенное к уровню моря атмосферное давление.
Po - Атмосферное давление - измеренное на уровне метеостанции атмосферное давление.
Tmin - Минимальная температура - минимум температуры воздуха на высоте 2 м над землей.
Tmax - Максимальная температура - максимум температуры воздуха на высоте 2 м над землей.
R - Количество осадков - Количество выпавших осадков за период времени, мм. При наведении курсора мыши на число - период времени, за который выпало указанное количество осадков.
R24 - Количество осадков - Количество выпавших осадков за 24 часа, мм.
S - Снежный покров - Высота снежного покрова, см. При наведении курсора мыши на число - состояние снежного покрова и степень покрытия местности в баллах.